2025-007L

Last updated on Tue Jan 14 2025 00:02:05 GMT+0000 (Coordinated Universal Time)

1 62585U 25007L 25013.45937979 -.00000209 00000+0 00000+0 0 9994 2 62585 54.9831 126.8709 0011210 288.2526 167.4981 14.75037150 42
UTC large
Height (km)
Speed (km/s)
/
Latitude / Longitude
Inclination (degrees)
Orbital Period (minutes)
Azimuth
Elevation
Range (km)
Doppler Factor

Next 0 passes for location: London (51.5072 / 0.1276)

Sorry there are no passes over London.